1998-067UH

Last updated on Thu Dec 15 2022 00:02:06 GMT+0000 (Coordinated Universal Time)

1 53770U 98067UH 22348.20690711 .00157117 00000+0 12715-2 0 9996 2 53770 51.6354 158.1784 0008400 231.8071 128.2170 15.69743040 15439

Satellite not in orbit